Regional Weather Roundup
Issued by NWS Burlington, VT

Current Version | Previous Version | Text Only | Print | Product List | Glossary On
Versions: 1 2 3 4 5 6 7 8 9 10 11 12 13 14 15 16 17 18 19 20 21 22 23 24 25 26 27 28 29 30 31 32 33 34 35 36 37 38 39 40 41 42 43 44 45 46 47 48 49 50
000 ASUS41 KBTV 182030 RWRBTV VERMONT REGIONAL WEATHER ROUNDUP NATIONAL WEATHER SERVICE BURLINGTON VT 400 PM EDT SAT APR 18 2015 NOTE: "FAIR" INDICATES FEW OR NO CLOUDS BELOW 12,000 FEET WITH NO SIGNIFICANT WEATHER AND/OR OBSTRUCTIONS TO VISIBILITY. * THESE REPORTS ARE NOT UNDER NWS QUALITY CONTROL AND/OR DO NOT REPORT WEATHER SUCH AS PRECIPITATION AND FOG. VTZ001>019-182100- _____VERMONT_____ CITY SKY/WX TMP DP RH WIND PRES REMARKS BURLINGTON PTCLDY 57 38 48 N15G21 29.91R MONTPELIER MOCLDY 52 42 69 NW16 29.93R MORRISVILLE LGT RAIN 54 37 52 NW15G30 29.91R ST. JOHNSBURY* N/A 50 44 80 MISG 29.86R LYNDONVILLE* N/A 51 42 70 W9 29.90R MIDDLEBURY* N/A 60 36 41 N16G22 29.88S RUTLAND* MOCLDY N/A N/A N/A NW12G18 29.86R SPRINGFIELD RAIN 59 44 57 NW13G21 29.82R HIGHGATE* N/A 47 36 67 N13G18 29.96R NEWPORT* CLOUDY 44 39 82 N8 29.92R BENNINGTON MOCLDY 71 36 27 W18G31 29.82F MT. MANSFIELD* N/A 37 N/A N/A CALM N/A _____LAKE CHAMPLAIN_____ CITY SKY/WX TMP DP RH WIND PRES REMARKS BURTON ISLAND* N/A 50 37 62 N6 N/A COLCHESTER RF* N/A 46 36 66 E22 N/A DIAMOND ISL* N/A 50 36 57 N18 N/A $$ NYZ007-026>031-035-052-083-182100- _____NORTHERN NEW YORK_____ CITY SKY/WX TMP DP RH WIND PRES REMARKS PLATTSBURGH MOCLDY 52 38 58 NE17 29.91R SARANAC LAKE CLOUDY 53 32 44 VRB5G21 29.89R MASSENA PTCLDY 58 32 37 NW18G32 29.96R OGDENSBURG* CLEAR 61 30 31 N18G28 29.99R POTSDAM* PTCLDY 59 36 41 NW20G28 29.97R WATERTOWN CLEAR 63 41 44 W9 29.97R FT DRUM CLEAR 63 27 25 N21 29.96R ALBANY MOCLDY 74 32 21 NW23G43 29.83S GLENS FALLS PTCLDY 68 38 33 N14G23 29.83R $$ NHZ002-005-011-182100- _____NEW HAMPSHIRE_____ CITY SKY/WX TMP DP RH WIND PRES REMARKS LEBANON LGT RAIN 57 45 64 NW12G20 29.85R KEENE MOCLDY 72 37 28 W20G31 29.79F MT WASHINGTON HAIL 28 28 100 NW45G63 N/A VSB 0 WCI 10 PLYMOUTH LGT RAIN 53 48 84 NW13G22 29.86R WHITEFIELD RAIN 46 41 82 NW7G23 29.89R $$ _____REGIONAL QUEBEC LOCATIONS_____ CITY SKY/WX TMP DP RH WIND PRES REMARKS MONTREAL MOCLDY 46 34 61 N5 29.97R QUEBEC CITY CLOUDY 45 27 49 N9 29.94R SHERBROOKE LGT RAIN 41 41 100 NW5 29.91R _____REGIONAL ONTARIO LOCATIONS_____ CITY SKY/WX TMP DP RH WIND PRES REMARKS OTTAWA PTCLDY 57 28 33 NW22G32 29.99R ______KEY______ VSB - VISIBILITY IN MILES WCI - WIND CHILL INDEX HX - HEAT INDEX $$ NNNN

USA.gov is the U.S. government's official web portal to all federal, state and local government web resources and services.